Year,Month,Day,Hour,Minute,Value (Times are PST for temperature in C)
2010,07,18,00,00,16.80
2010,07,18,00,01,16.70
2010,07,18,00,02,16.70
2010,07,18,00,03,16.70
2010,07,18,00,04,16.70
2010,07,18,00,05,16.70
2010,07,18,00,06,16.70
2010,07,18,00,07,16.60
2010,07,18,00,08,16.60
2010,07,18,00,09,16.60
2010,07,18,00,10,16.60
2010,07,18,00,11,16.60
2010,07,18,00,12,16.50
2010,07,18,00,13,16.40
2010,07,18,00,14,16.40
2010,07,18,00,15,16.40
2010,07,18,00,16,16.40
2010,07,18,00,17,16.40
2010,07,18,00,18,16.40
2010,07,18,00,19,16.40
2010,07,18,00,20,16.40
2010,07,18,00,21,16.40
2010,07,18,00,22,16.40
2010,07,18,00,23,16.40
2010,07,18,00,24,16.30
2010,07,18,00,25,16.30
2010,07,18,00,26,16.30
2010,07,18,00,27,16.30
2010,07,18,00,28,16.20
2010,07,18,00,29,16.20
2010,07,18,00,30,16.20
2010,07,18,00,31,16.30
2010,07,18,00,32,16.20
2010,07,18,00,33,16.20
2010,07,18,00,34,16.20
2010,07,18,00,35,16.20
2010,07,18,00,36,16.20
2010,07,18,00,37,16.20
2010,07,18,00,38,16.20
2010,07,18,00,39,16.20
2010,07,18,00,40,16.20
2010,07,18,00,41,16.20
2010,07,18,00,42,16.20
2010,07,18,00,43,16.20
2010,07,18,00,44,16.20
2010,07,18,00,45,16.20
2010,07,18,00,46,16.20
2010,07,18,00,47,16.10
2010,07,18,00,48,16.10
2010,07,18,00,49,16.10
2010,07,18,00,50,16.10
2010,07,18,00,51,16.10
2010,07,18,00,52,16.10
2010,07,18,00,53,16.10
2010,07,18,00,54,16.00
2010,07,18,00,55,15.90
2010,07,18,00,56,15.90
2010,07,18,00,57,15.90
2010,07,18,00,58,15.80
2010,07,18,00,59,15.80
2010,07,18,01,00,15.80
2010,07,18,01,01,15.80
2010,07,18,01,02,15.80
2010,07,18,01,03,15.80
2010,07,18,01,04,15.70
2010,07,18,01,05,15.70
2010,07,18,01,06,15.60
2010,07,18,01,07,15.60
2010,07,18,01,08,15.60
2010,07,18,01,09,15.60
2010,07,18,01,10,15.60
2010,07,18,01,11,15.50
2010,07,18,01,12,15.50
2010,07,18,01,13,15.50
2010,07,18,01,14,15.50
2010,07,18,01,15,15.50
2010,07,18,01,16,15.50
2010,07,18,01,17,15.60
2010,07,18,01,18,15.60
2010,07,18,01,19,15.60
2010,07,18,01,20,15.60
2010,07,18,01,21,15.60
2010,07,18,01,22,15.60
2010,07,18,01,23,15.60
2010,07,18,01,24,15.60
2010,07,18,01,25,15.60
2010,07,18,01,26,15.60
2010,07,18,01,27,15.60
2010,07,18,01,28,15.60
2010,07,18,01,29,15.60
2010,07,18,01,30,15.60
2010,07,18,01,31,15.60
2010,07,18,01,32,15.50
2010,07,18,01,33,15.50
2010,07,18,01,34,15.50
2010,07,18,01,35,15.40
2010,07,18,01,36,15.40
2010,07,18,01,37,15.30
2010,07,18,01,38,15.30
2010,07,18,01,39,15.30
2010,07,18,01,40,15.20
2010,07,18,01,41,15.20
2010,07,18,01,42,15.20
2010,07,18,01,43,15.10
2010,07,18,01,44,15.10
2010,07,18,01,45,15.00
2010,07,18,01,46,15.00
2010,07,18,01,47,15.00
2010,07,18,01,48,15.00
2010,07,18,01,49,14.90
2010,07,18,01,50,14.90
2010,07,18,01,51,14.90
2010,07,18,01,52,14.90
2010,07,18,01,53,14.80
2010,07,18,01,54,14.80
2010,07,18,01,55,14.80
2010,07,18,01,56,14.80
2010,07,18,01,57,14.80
2010,07,18,01,58,14.70
2010,07,18,01,59,14.70
2010,07,18,02,00,14.70
2010,07,18,02,01,14.70
2010,07,18,02,02,14.70
2010,07,18,02,03,14.70
2010,07,18,02,04,14.70
2010,07,18,02,05,14.60
2010,07,18,02,06,14.60
2010,07,18,02,07,14.60
2010,07,18,02,08,14.60
2010,07,18,02,09,14.60
2010,07,18,02,10,14.60
2010,07,18,02,11,14.60
2010,07,18,02,12,14.50
2010,07,18,02,13,14.50
2010,07,18,02,14,14.50
2010,07,18,02,15,14.40
2010,07,18,02,16,14.40
2010,07,18,02,17,14.30
2010,07,18,02,18,14.30
2010,07,18,02,19,14.30
2010,07,18,02,20,14.30
2010,07,18,02,21,14.20
2010,07,18,02,22,14.20
2010,07,18,02,23,14.20
2010,07,18,02,24,14.20
2010,07,18,02,25,14.20
2010,07,18,02,26,14.20
2010,07,18,02,27,14.20
2010,07,18,02,28,14.10
2010,07,18,02,29,14.10
2010,07,18,02,30,14.10
2010,07,18,02,31,14.10
2010,07,18,02,32,14.10
2010,07,18,02,33,14.10
2010,07,18,02,34,14.10
2010,07,18,02,35,14.10
2010,07,18,02,36,14.10
2010,07,18,02,37,14.10
2010,07,18,02,38,14.10
2010,07,18,02,39,14.00
2010,07,18,02,40,14.00
2010,07,18,02,41,14.00
2010,07,18,02,42,14.00
2010,07,18,02,43,14.00
2010,07,18,02,44,14.00
2010,07,18,02,45,14.00
2010,07,18,02,46,14.00
2010,07,18,02,47,14.00
2010,07,18,02,48,14.00
2010,07,18,02,49,13.90
2010,07,18,02,50,13.90
2010,07,18,02,51,13.90
2010,07,18,02,52,13.90
2010,07,18,02,53,13.90
2010,07,18,02,54,13.90
2010,07,18,02,55,13.90
2010,07,18,02,56,13.90
2010,07,18,02,57,13.90
2010,07,18,02,58,13.80
2010,07,18,02,59,13.80
2010,07,18,03,00,13.80
2010,07,18,03,01,13.70
2010,07,18,03,02,13.70
2010,07,18,03,03,13.70
2010,07,18,03,04,13.70
2010,07,18,03,05,13.70
2010,07,18,03,06,13.70
2010,07,18,03,07,13.70
2010,07,18,03,08,13.70
2010,07,18,03,09,13.60
2010,07,18,03,10,13.60
2010,07,18,03,11,13.60
2010,07,18,03,12,13.60
2010,07,18,03,13,13.60
2010,07,18,03,14,13.60
2010,07,18,03,15,13.60
2010,07,18,03,16,13.60
2010,07,18,03,17,13.60
2010,07,18,03,18,13.50
2010,07,18,03,19,13.50
2010,07,18,03,20,13.50
2010,07,18,03,21,13.50
2010,07,18,03,22,13.50
2010,07,18,03,23,13.40
2010,07,18,03,24,13.40
2010,07,18,03,25,13.40
2010,07,18,03,26,13.30
2010,07,18,03,27,13.30
2010,07,18,03,28,13.30
2010,07,18,03,29,13.30
2010,07,18,03,30,13.30
2010,07,18,03,31,13.30
2010,07,18,03,32,13.30
2010,07,18,03,33,13.20
2010,07,18,03,34,13.20
2010,07,18,03,35,13.20
2010,07,18,03,36,13.10
2010,07,18,03,37,13.10
2010,07,18,03,38,13.10
2010,07,18,03,39,13.10
2010,07,18,03,40,13.10
2010,07,18,03,41,13.10
2010,07,18,03,42,13.20
2010,07,18,03,43,13.20
2010,07,18,03,44,13.10
2010,07,18,03,45,13.10
2010,07,18,03,46,13.10
2010,07,18,03,47,13.10
2010,07,18,03,48,13.10
2010,07,18,03,49,13.10
2010,07,18,03,50,13.10
2010,07,18,03,51,13.20
2010,07,18,03,52,13.20
2010,07,18,03,53,13.20
2010,07,18,03,54,13.20
2010,07,18,03,55,13.30
2010,07,18,03,56,13.30
2010,07,18,03,57,13.30
2010,07,18,03,58,13.30
2010,07,18,03,59,13.30
2010,07,18,04,00,13.30
2010,07,18,04,01,13.30
2010,07,18,04,02,13.30
2010,07,18,04,03,13.30
2010,07,18,04,04,13.30
2010,07,18,04,05,13.30
2010,07,18,04,06,13.30
2010,07,18,04,07,13.30
2010,07,18,04,08,13.30
2010,07,18,04,09,13.30
2010,07,18,04,10,13.30
2010,07,18,04,11,13.30
2010,07,18,04,12,13.40
2010,07,18,04,13,13.40
2010,07,18,04,14,13.40
2010,07,18,04,15,13.40
2010,07,18,04,16,13.40
2010,07,18,04,17,13.40
2010,07,18,04,18,13.40
2010,07,18,04,19,13.40
2010,07,18,04,20,13.40
2010,07,18,04,21,13.40
2010,07,18,04,22,13.50
2010,07,18,04,23,13.50
2010,07,18,04,24,13.50
2010,07,18,04,25,13.50
2010,07,18,04,26,13.50
2010,07,18,04,27,13.50
2010,07,18,04,28,13.50
2010,07,18,04,29,13.50
2010,07,18,04,30,13.50
2010,07,18,04,31,13.40
2010,07,18,04,32,13.40
2010,07,18,04,33,13.30
2010,07,18,04,34,13.30
2010,07,18,04,35,13.30
2010,07,18,04,36,13.30
2010,07,18,04,37,13.30
2010,07,18,04,38,13.30
2010,07,18,04,39,13.30
2010,07,18,04,40,13.30
2010,07,18,04,41,13.30
2010,07,18,04,42,13.20
2010,07,18,04,43,13.20
2010,07,18,04,44,13.20
2010,07,18,04,45,13.20
2010,07,18,04,46,13.20
2010,07,18,04,47,13.20
2010,07,18,04,48,13.20
2010,07,18,04,49,13.20
2010,07,18,04,50,13.20
2010,07,18,04,51,13.10
2010,07,18,04,52,13.10
2010,07,18,04,53,13.10
2010,07,18,04,54,13.00
2010,07,18,04,55,13.00
2010,07,18,04,56,12.90
2010,07,18,04,57,12.80
2010,07,18,04,58,12.80
2010,07,18,04,59,12.80
2010,07,18,05,00,12.80
2010,07,18,05,01,12.80
2010,07,18,05,02,12.80
2010,07,18,05,03,12.70
2010,07,18,05,04,12.70
2010,07,18,05,05,12.70
2010,07,18,05,06,12.70
2010,07,18,05,07,12.70
2010,07,18,05,08,12.70
2010,07,18,05,09,12.80
2010,07,18,05,10,12.80
2010,07,18,05,11,12.80
2010,07,18,05,12,12.80
2010,07,18,05,13,12.80
2010,07,18,05,14,12.80
2010,07,18,05,15,12.80
2010,07,18,05,16,12.80
2010,07,18,05,17,12.80
2010,07,18,05,18,12.80
2010,07,18,05,19,12.80
2010,07,18,05,20,12.80
2010,07,18,05,21,12.80
2010,07,18,05,22,12.80
2010,07,18,05,23,12.80
2010,07,18,05,24,12.80
2010,07,18,05,25,12.80
2010,07,18,05,26,12.80
2010,07,18,05,27,12.80
2010,07,18,05,28,12.80
2010,07,18,05,29,12.80
2010,07,18,05,30,12.80
2010,07,18,05,31,12.80
2010,07,18,05,32,12.80
2010,07,18,05,33,12.80
2010,07,18,05,34,12.80
2010,07,18,05,35,12.80
2010,07,18,05,36,12.80
2010,07,18,05,37,12.80
2010,07,18,05,38,12.80
2010,07,18,05,39,12.80
2010,07,18,05,40,12.80
2010,07,18,05,41,12.80
2010,07,18,05,42,12.80
2010,07,18,05,43,12.80
2010,07,18,05,44,12.80
2010,07,18,05,45,12.80
2010,07,18,05,46,12.80
2010,07,18,05,47,12.80
2010,07,18,05,48,12.80
2010,07,18,05,49,12.80
2010,07,18,05,50,12.80
2010,07,18,05,51,12.80
2010,07,18,05,52,12.80
2010,07,18,05,53,12.80
2010,07,18,05,54,12.80
2010,07,18,05,55,12.80
2010,07,18,05,56,12.80
2010,07,18,05,57,12.90
2010,07,18,05,58,12.90
2010,07,18,05,59,12.90
2010,07,18,06,00,12.90
2010,07,18,06,01,12.90
2010,07,18,06,02,12.90
2010,07,18,06,03,12.90
2010,07,18,06,04,12.90
2010,07,18,06,05,12.90
2010,07,18,06,06,13.00
2010,07,18,06,07,13.00
2010,07,18,06,08,13.00
2010,07,18,06,09,13.00
2010,07,18,06,10,13.00
2010,07,18,06,11,13.10
2010,07,18,06,12,13.10
2010,07,18,06,13,13.10
2010,07,18,06,14,13.10
2010,07,18,06,15,13.20
2010,07,18,06,16,13.20
2010,07,18,06,17,13.20
2010,07,18,06,18,13.20
2010,07,18,06,19,13.20
2010,07,18,06,20,13.20
2010,07,18,06,21,13.20
2010,07,18,06,22,13.30
2010,07,18,06,23,13.30
2010,07,18,06,24,13.30
2010,07,18,06,25,13.30
2010,07,18,06,26,13.30
2010,07,18,06,27,13.30
2010,07,18,06,28,13.30
2010,07,18,06,29,13.30
2010,07,18,06,30,13.40
2010,07,18,06,31,13.40
2010,07,18,06,32,13.40
2010,07,18,06,33,13.50
2010,07,18,06,34,13.50
2010,07,18,06,35,13.50
2010,07,18,06,36,13.60
2010,07,18,06,37,13.60
2010,07,18,06,38,13.70
2010,07,18,06,39,13.70
2010,07,18,06,40,13.70
2010,07,18,06,41,13.70
2010,07,18,06,42,13.80
2010,07,18,06,43,13.80
2010,07,18,06,44,13.90
2010,07,18,06,45,13.90
2010,07,18,06,46,14.00
2010,07,18,06,47,14.00
2010,07,18,06,48,14.00
2010,07,18,06,49,14.10
2010,07,18,06,50,14.10
2010,07,18,06,51,14.20
2010,07,18,06,52,14.20
2010,07,18,06,53,14.20
2010,07,18,06,54,14.20
2010,07,18,06,55,14.20
2010,07,18,06,56,14.20
2010,07,18,06,57,14.30
2010,07,18,06,58,14.30
2010,07,18,06,59,14.30
2010,07,18,07,00,14.40
2010,07,18,07,01,14.40
2010,07,18,07,02,14.40
2010,07,18,07,03,14.40
2010,07,18,07,04,14.40
2010,07,18,07,05,14.40
2010,07,18,07,06,14.50
2010,07,18,07,07,14.50
2010,07,18,07,08,14.50
2010,07,18,07,09,14.50
2010,07,18,07,10,14.60
2010,07,18,07,11,14.60
2010,07,18,07,12,14.60
2010,07,18,07,13,14.60
2010,07,18,07,14,14.60
2010,07,18,07,15,14.60
2010,07,18,07,16,14.70
2010,07,18,07,17,14.70
2010,07,18,07,18,14.70
2010,07,18,07,19,14.70
2010,07,18,07,20,14.70
2010,07,18,07,21,14.70
2010,07,18,07,22,14.80
2010,07,18,07,23,14.80
2010,07,18,07,24,14.80
2010,07,18,07,25,14.80
2010,07,18,07,26,14.80
2010,07,18,07,27,14.80
2010,07,18,07,28,14.80
2010,07,18,07,29,14.80
2010,07,18,07,30,14.90
2010,07,18,07,31,14.90
2010,07,18,07,32,14.90
2010,07,18,07,33,14.90
2010,07,18,07,34,14.90
2010,07,18,07,35,14.90
2010,07,18,07,36,14.90
2010,07,18,07,37,14.90
2010,07,18,07,38,14.90
2010,07,18,07,39,14.90
2010,07,18,07,40,14.90
2010,07,18,07,41,14.90
2010,07,18,07,42,14.90
2010,07,18,07,43,14.90
2010,07,18,07,44,14.90
2010,07,18,07,45,14.90
2010,07,18,07,46,14.90
2010,07,18,07,47,14.90
2010,07,18,07,48,14.90
2010,07,18,07,49,15.00
2010,07,18,07,50,15.00
2010,07,18,07,51,15.00
2010,07,18,07,52,15.00
2010,07,18,07,53,15.10
2010,07,18,07,54,15.10
2010,07,18,07,55,15.10
2010,07,18,07,56,15.10
2010,07,18,07,57,15.10
2010,07,18,07,58,15.20
2010,07,18,07,59,15.20
2010,07,18,08,00,15.20
2010,07,18,08,01,15.20
2010,07,18,08,02,15.30
2010,07,18,08,03,15.20
2010,07,18,08,04,15.20
2010,07,18,08,05,15.20
2010,07,18,08,06,15.20
2010,07,18,08,07,15.20
2010,07,18,08,08,15.20
2010,07,18,08,09,15.20
2010,07,18,08,10,15.30
2010,07,18,08,11,15.30
2010,07,18,08,12,15.30
2010,07,18,08,13,15.30
2010,07,18,08,14,15.30
2010,07,18,08,15,15.30
2010,07,18,08,16,15.30
2010,07,18,08,17,15.40
2010,07,18,08,18,15.40
2010,07,18,08,19,15.50
2010,07,18,08,20,15.50
2010,07,18,08,21,15.50
2010,07,18,08,22,15.50
2010,07,18,08,23,15.50
2010,07,18,08,24,15.50
2010,07,18,08,25,15.50
2010,07,18,08,26,15.50
2010,07,18,08,27,15.50
2010,07,18,08,28,15.50
2010,07,18,08,29,15.50
2010,07,18,08,30,15.60
2010,07,18,08,31,15.60
2010,07,18,08,32,15.60
2010,07,18,08,33,15.70
2010,07,18,08,34,15.70
2010,07,18,08,35,15.70
2010,07,18,08,36,15.70
2010,07,18,08,37,15.70
2010,07,18,08,38,15.80
2010,07,18,08,39,15.80
2010,07,18,08,40,15.80
2010,07,18,08,41,15.80
2010,07,18,08,42,15.80
2010,07,18,08,43,15.80
2010,07,18,08,44,15.80
2010,07,18,08,45,15.80
2010,07,18,08,46,15.80
2010,07,18,08,47,15.80
2010,07,18,08,48,15.80
2010,07,18,08,49,15.80
2010,07,18,08,50,15.90
2010,07,18,08,51,16.00
2010,07,18,08,52,16.10
2010,07,18,08,53,16.10
2010,07,18,08,54,16.10
2010,07,18,08,55,16.10
2010,07,18,08,56,16.10
2010,07,18,08,57,16.10
2010,07,18,08,58,16.10
2010,07,18,08,59,16.10
2010,07,18,09,00,16.10
2010,07,18,09,01,16.10
2010,07,18,09,02,16.10
2010,07,18,09,03,16.10
2010,07,18,09,04,16.10
2010,07,18,09,05,16.10
2010,07,18,09,06,16.10
2010,07,18,09,07,16.10
2010,07,18,09,08,16.10
2010,07,18,09,09,16.10
2010,07,18,09,10,16.10
2010,07,18,09,11,16.10
2010,07,18,09,12,16.10
2010,07,18,09,13,16.10
2010,07,18,09,14,16.10
2010,07,18,09,15,16.10
2010,07,18,09,16,16.10
2010,07,18,09,17,16.20
2010,07,18,09,18,16.30
2010,07,18,09,19,16.40
2010,07,18,09,20,16.40
2010,07,18,09,21,16.50
2010,07,18,09,22,16.60
2010,07,18,09,23,16.60
2010,07,18,09,24,16.70
2010,07,18,09,25,16.70
2010,07,18,09,26,16.80
2010,07,18,09,27,16.90
2010,07,18,09,28,16.90
2010,07,18,09,29,16.90
2010,07,18,09,30,16.80
2010,07,18,09,31,16.80
2010,07,18,09,32,16.80
2010,07,18,09,33,16.80
2010,07,18,09,34,16.80
2010,07,18,09,35,16.80
2010,07,18,09,36,16.80
2010,07,18,09,37,16.80
2010,07,18,09,38,16.90
2010,07,18,09,39,16.90
2010,07,18,09,40,17.00
2010,07,18,09,41,17.00
2010,07,18,09,42,17.10
2010,07,18,09,43,17.00
2010,07,18,09,44,17.00
2010,07,18,09,45,17.00
2010,07,18,09,46,17.00
2010,07,18,09,47,16.90
2010,07,18,09,48,16.90
2010,07,18,09,49,16.90
2010,07,18,09,50,17.00
2010,07,18,09,51,17.00
2010,07,18,09,52,17.10
2010,07,18,09,53,17.20
2010,07,18,09,54,17.30
2010,07,18,09,55,17.30
2010,07,18,09,56,17.30
2010,07,18,09,57,17.30
2010,07,18,09,58,17.30
2010,07,18,09,59,17.30
2010,07,18,10,00,17.30
2010,07,18,10,01,17.30
2010,07,18,10,02,17.30
2010,07,18,10,03,17.40
2010,07,18,10,04,17.40
2010,07,18,10,05,17.50
2010,07,18,10,06,17.70
2010,07,18,10,07,17.70
2010,07,18,10,08,17.80
2010,07,18,10,09,17.70
2010,07,18,10,10,17.60
2010,07,18,10,11,17.50
2010,07,18,10,12,17.30
2010,07,18,10,13,17.30
2010,07,18,10,14,17.30
2010,07,18,10,15,17.20
2010,07,18,10,16,17.20
2010,07,18,10,17,17.20
2010,07,18,10,18,17.10
2010,07,18,10,19,17.10
2010,07,18,10,20,17.10
2010,07,18,10,21,17.20
2010,07,18,10,22,17.30
2010,07,18,10,23,17.30
2010,07,18,10,24,17.30
2010,07,18,10,25,17.30
2010,07,18,10,26,17.30
2010,07,18,10,27,17.30
2010,07,18,10,28,17.30
2010,07,18,10,29,17.30
2010,07,18,10,30,17.20
2010,07,18,10,31,17.20
2010,07,18,10,32,17.20
2010,07,18,10,33,17.20
2010,07,18,10,34,17.30
2010,07,18,10,35,17.30
2010,07,18,10,36,17.30
2010,07,18,10,37,17.30
2010,07,18,10,38,17.30
2010,07,18,10,39,17.30
2010,07,18,10,40,17.40
2010,07,18,10,41,17.40
2010,07,18,10,42,17.40
2010,07,18,10,43,17.50
2010,07,18,10,44,17.50
2010,07,18,10,45,17.50
2010,07,18,10,46,17.40
2010,07,18,10,47,17.50
2010,07,18,10,48,17.50
2010,07,18,10,49,17.60
2010,07,18,10,50,17.60
2010,07,18,10,51,17.60
2010,07,18,10,52,17.60
2010,07,18,10,53,17.60
2010,07,18,10,54,17.60
2010,07,18,10,55,17.70
2010,07,18,10,56,17.70
2010,07,18,10,57,17.70
2010,07,18,10,58,17.70
2010,07,18,10,59,17.80
2010,07,18,11,00,17.90
2010,07,18,11,01,17.90
2010,07,18,11,02,17.90
2010,07,18,11,03,17.90
2010,07,18,11,04,17.90
2010,07,18,11,05,17.90
2010,07,18,11,06,18.10
2010,07,18,11,07,18.10
2010,07,18,11,08,18.10
2010,07,18,11,09,18.00
2010,07,18,11,10,17.90
2010,07,18,11,11,17.90
2010,07,18,11,12,17.90
2010,07,18,11,13,17.90
2010,07,18,11,14,17.90
2010,07,18,11,15,17.90
2010,07,18,11,16,17.90
2010,07,18,11,17,17.90
2010,07,18,11,18,18.00
2010,07,18,11,19,18.10
2010,07,18,11,20,18.10
2010,07,18,11,21,18.20
2010,07,18,11,22,18.20
2010,07,18,11,23,18.20
2010,07,18,11,24,18.20
2010,07,18,11,25,18.20
2010,07,18,11,26,18.20
2010,07,18,11,27,18.20
2010,07,18,11,28,18.00
2010,07,18,11,29,17.90
2010,07,18,11,30,17.90
2010,07,18,11,31,17.90
2010,07,18,11,32,18.00
2010,07,18,11,33,18.10
2010,07,18,11,34,18.20
2010,07,18,11,35,18.20
2010,07,18,11,36,18.20
2010,07,18,11,37,18.20
2010,07,18,11,38,18.20
2010,07,18,11,39,18.20
2010,07,18,11,40,18.20
2010,07,18,11,41,18.10
2010,07,18,11,42,17.90
2010,07,18,11,43,17.90
2010,07,18,11,44,17.90
2010,07,18,11,45,17.90
2010,07,18,11,46,17.90
2010,07,18,11,47,17.90
2010,07,18,11,48,17.90
2010,07,18,11,49,17.90
2010,07,18,11,50,17.80
2010,07,18,11,51,17.90
2010,07,18,11,52,17.90
2010,07,18,11,53,18.10
2010,07,18,11,54,18.10
2010,07,18,11,55,18.10
2010,07,18,11,56,18.10
2010,07,18,11,57,18.10
2010,07,18,11,58,18.10
2010,07,18,11,59,18.20
2010,07,18,12,00,18.20
2010,07,18,12,01,18.20
2010,07,18,12,02,18.20
2010,07,18,12,03,18.20
2010,07,18,12,04,18.30
2010,07,18,12,05,18.40
2010,07,18,12,06,18.50
2010,07,18,12,07,18.60
2010,07,18,12,08,18.70
2010,07,18,12,09,18.80
2010,07,18,12,10,18.90
2010,07,18,12,11,18.90
2010,07,18,12,12,18.90
2010,07,18,12,13,18.90
2010,07,18,12,14,18.90
2010,07,18,12,15,18.90
2010,07,18,12,16,18.80
2010,07,18,12,17,18.70
2010,07,18,12,18,18.70
2010,07,18,12,19,18.60
2010,07,18,12,20,18.70
2010,07,18,12,21,18.70
2010,07,18,12,22,18.70
2010,07,18,12,23,18.80
2010,07,18,12,24,18.90
2010,07,18,12,25,18.90
2010,07,18,12,26,18.90
2010,07,18,12,27,18.90
2010,07,18,12,28,19.00
2010,07,18,12,29,18.90
2010,07,18,12,30,18.90
2010,07,18,12,31,18.90
2010,07,18,12,32,18.90
2010,07,18,12,33,18.90
2010,07,18,12,34,18.90
2010,07,18,12,35,18.90
2010,07,18,12,36,18.90
2010,07,18,12,37,18.90
2010,07,18,12,38,18.90
2010,07,18,12,39,19.10
2010,07,18,12,40,19.10
2010,07,18,12,41,19.10
2010,07,18,12,42,19.10
2010,07,18,12,43,19.20
2010,07,18,12,44,19.10
2010,07,18,12,45,19.10
2010,07,18,12,46,19.10
2010,07,18,12,47,19.20
2010,07,18,12,48,19.30
2010,07,18,12,49,19.40
2010,07,18,12,50,19.60
2010,07,18,12,51,19.60
2010,07,18,12,52,19.50
2010,07,18,12,53,19.50
2010,07,18,12,54,19.40
2010,07,18,12,55,19.40
2010,07,18,12,56,19.30
2010,07,18,12,57,19.20
2010,07,18,12,58,19.30
2010,07,18,12,59,19.30
2010,07,18,13,00,19.30
2010,07,18,13,01,19.30
2010,07,18,13,02,19.20
2010,07,18,13,03,19.20
2010,07,18,13,04,19.10
2010,07,18,13,05,19.10
2010,07,18,13,06,19.10
2010,07,18,13,07,19.10
2010,07,18,13,08,19.20
2010,07,18,13,09,19.20
2010,07,18,13,10,19.30
2010,07,18,13,11,19.40
2010,07,18,13,12,19.50
2010,07,18,13,13,19.60
2010,07,18,13,14,19.70
2010,07,18,13,15,19.70
2010,07,18,13,16,19.70
2010,07,18,13,17,19.70
2010,07,18,13,18,19.70
2010,07,18,13,19,19.70
2010,07,18,13,20,19.70
2010,07,18,13,21,19.90
2010,07,18,13,22,19.90
2010,07,18,13,23,19.90
2010,07,18,13,24,19.90
2010,07,18,13,25,19.90
2010,07,18,13,26,19.90
2010,07,18,13,27,19.90
2010,07,18,13,28,19.90
2010,07,18,13,29,20.10
2010,07,18,13,30,19.90
2010,07,18,13,31,19.90
2010,07,18,13,32,19.90
2010,07,18,13,33,20.10
2010,07,18,13,34,20.10
2010,07,18,13,35,20.20
2010,07,18,13,36,20.20
2010,07,18,13,37,20.30
2010,07,18,13,38,20.50
2010,07,18,13,39,20.60
2010,07,18,13,40,20.70
2010,07,18,13,41,20.70
2010,07,18,13,42,20.70
2010,07,18,13,43,20.70
2010,07,18,13,44,20.80
2010,07,18,13,45,20.90
2010,07,18,13,46,21.00
2010,07,18,13,47,20.90
2010,07,18,13,48,20.80
2010,07,18,13,49,20.80
2010,07,18,13,50,20.80
2010,07,18,13,51,20.70
2010,07,18,13,52,20.80
2010,07,18,13,53,21.00
2010,07,18,13,54,21.20
2010,07,18,13,55,21.30
2010,07,18,13,56,21.40
2010,07,18,13,57,21.50
2010,07,18,13,58,21.40
2010,07,18,13,59,21.40
2010,07,18,14,00,21.30
2010,07,18,14,01,21.20
2010,07,18,14,02,21.20
2010,07,18,14,03,21.10
2010,07,18,14,04,21.20
2010,07,18,14,05,21.10
2010,07,18,14,06,21.00
2010,07,18,14,07,21.00
2010,07,18,14,08,20.90
2010,07,18,14,09,20.90
2010,07,18,14,10,20.90
2010,07,18,14,11,21.00
2010,07,18,14,12,21.10
2010,07,18,14,13,21.10
2010,07,18,14,14,21.30
2010,07,18,14,15,21.30
2010,07,18,14,16,21.40
2010,07,18,14,17,21.50
2010,07,18,14,18,21.60
2010,07,18,14,19,21.60
2010,07,18,14,20,21.70
2010,07,18,14,21,21.70
2010,07,18,14,22,21.80
2010,07,18,14,23,21.70
2010,07,18,14,24,21.60
2010,07,18,14,25,21.60
2010,07,18,14,26,21.60
2010,07,18,14,27,21.60
2010,07,18,14,28,21.60
2010,07,18,14,29,21.60
2010,07,18,14,30,21.70
2010,07,18,14,31,21.80
2010,07,18,14,32,21.90
2010,07,18,14,33,21.80
2010,07,18,14,34,21.80
2010,07,18,14,35,21.70
2010,07,18,14,36,21.70
2010,07,18,14,37,21.70
2010,07,18,14,38,21.70
2010,07,18,14,39,21.70
2010,07,18,14,40,21.70
2010,07,18,14,41,21.70
2010,07,18,14,42,21.70
2010,07,18,14,43,21.70
2010,07,18,14,44,21.70
2010,07,18,14,45,21.60
2010,07,18,14,46,21.50
2010,07,18,14,47,21.40
2010,07,18,14,48,21.30
2010,07,18,14,49,21.20
2010,07,18,14,50,21.10
2010,07,18,14,51,21.20
2010,07,18,14,52,21.30
2010,07,18,14,53,21.30
2010,07,18,14,54,21.40
2010,07,18,14,55,21.60
2010,07,18,14,56,21.60
2010,07,18,14,57,21.60
2010,07,18,14,58,21.70
2010,07,18,14,59,21.80
2010,07,18,15,00,21.70
2010,07,18,15,01,21.70
2010,07,18,15,02,21.70
2010,07,18,15,03,21.70
2010,07,18,15,04,21.70
2010,07,18,15,05,21.70
2010,07,18,15,06,21.80
2010,07,18,15,07,22.00
2010,07,18,15,08,22.00
2010,07,18,15,09,22.10
2010,07,18,15,10,22.10
2010,07,18,15,11,22.10
2010,07,18,15,12,22.10
2010,07,18,15,13,22.10
2010,07,18,15,14,22.10
2010,07,18,15,15,22.00
2010,07,18,15,16,22.00
2010,07,18,15,17,21.80
2010,07,18,15,18,21.90
2010,07,18,15,19,22.00
2010,07,18,15,20,22.00
2010,07,18,15,21,22.00
2010,07,18,15,22,22.00
2010,07,18,15,23,21.90
2010,07,18,15,24,21.80
2010,07,18,15,25,21.70
2010,07,18,15,26,21.60
2010,07,18,15,27,21.50
2010,07,18,15,28,21.40
2010,07,18,15,29,21.60
2010,07,18,15,30,21.60
2010,07,18,15,31,21.80
2010,07,18,15,32,21.90
2010,07,18,15,33,22.00
2010,07,18,15,34,22.00
2010,07,18,15,35,22.00
2010,07,18,15,36,22.00
2010,07,18,15,37,22.00
2010,07,18,15,38,22.00
2010,07,18,15,39,22.10
2010,07,18,15,40,22.20
2010,07,18,15,41,22.30
2010,07,18,15,42,22.40
2010,07,18,15,43,22.50
2010,07,18,15,44,22.50
2010,07,18,15,45,22.60
2010,07,18,15,46,22.60
2010,07,18,15,47,22.70
2010,07,18,15,48,22.60
2010,07,18,15,49,22.40
2010,07,18,15,50,22.40
2010,07,18,15,51,22.40
2010,07,18,15,52,22.30
2010,07,18,15,53,22.30
2010,07,18,15,54,22.30
2010,07,18,15,55,22.30
2010,07,18,15,56,22.20
2010,07,18,15,57,22.00
2010,07,18,15,58,22.00
2010,07,18,15,59,22.00
2010,07,18,16,00,21.90
2010,07,18,16,01,21.70
2010,07,18,16,02,21.60
2010,07,18,16,03,21.40
2010,07,18,16,04,21.40
2010,07,18,16,05,21.50
2010,07,18,16,06,21.60
2010,07,18,16,07,21.70
2010,07,18,16,08,21.80
2010,07,18,16,09,21.80
2010,07,18,16,10,21.90
2010,07,18,16,11,22.00
2010,07,18,16,12,21.90
2010,07,18,16,13,21.80
2010,07,18,16,14,21.60
2010,07,18,16,15,21.60
2010,07,18,16,16,21.60
2010,07,18,16,17,21.50
2010,07,18,16,18,21.40
2010,07,18,16,19,21.40
2010,07,18,16,20,21.50
2010,07,18,16,21,21.60
2010,07,18,16,22,21.70
2010,07,18,16,23,21.80
2010,07,18,16,24,21.80
2010,07,18,16,25,21.80
2010,07,18,16,26,21.80
2010,07,18,16,27,21.90
2010,07,18,16,28,22.00
2010,07,18,16,29,22.00
2010,07,18,16,30,22.10
2010,07,18,16,31,22.20
2010,07,18,16,32,22.20
2010,07,18,16,33,22.10
2010,07,18,16,34,22.00
2010,07,18,16,35,22.00
2010,07,18,16,36,21.80
2010,07,18,16,37,21.70
2010,07,18,16,38,21.60
2010,07,18,16,39,21.60
2010,07,18,16,40,21.60
2010,07,18,16,41,21.60
2010,07,18,16,42,21.60
2010,07,18,16,43,21.60
2010,07,18,16,44,21.60
2010,07,18,16,45,21.60
2010,07,18,16,46,21.60
2010,07,18,16,47,21.70
2010,07,18,16,48,21.80
2010,07,18,16,49,21.90
2010,07,18,16,50,22.00
2010,07,18,16,51,22.00
2010,07,18,16,52,22.10
2010,07,18,16,53,22.20
2010,07,18,16,54,22.10
2010,07,18,16,55,22.20
2010,07,18,16,56,22.30
2010,07,18,16,57,22.50
2010,07,18,16,58,22.50
2010,07,18,16,59,22.60
2010,07,18,17,00,22.60
2010,07,18,17,01,22.70
2010,07,18,17,02,22.90
2010,07,18,17,03,22.90
2010,07,18,17,04,22.90
2010,07,18,17,05,22.90
2010,07,18,17,06,23.00
2010,07,18,17,07,23.10
2010,07,18,17,08,23.10
2010,07,18,17,09,23.20
2010,07,18,17,10,23.20
2010,07,18,17,11,23.30
2010,07,18,17,12,23.30
2010,07,18,17,13,23.40
2010,07,18,17,14,23.40
2010,07,18,17,15,23.30
2010,07,18,17,16,23.30
2010,07,18,17,17,23.30
2010,07,18,17,18,23.20
2010,07,18,17,19,23.10